COSMOS 249 DEB

基本信息
目录编号:
15775
目录名称:
COSMOS 249 DEB
国际标识:
1968-091DA
轨道中心:
EARTH
物体状态:
在轨
发射日期:
1968-10-20 UTC
轨道信息
数据来源: 国际轨道数据
星历时间: 2026-07-08T21:05:23+0800
半长轴: 7642.924km
偏心率: 0.0662489
轨道倾角: 62.299°
近地点辐角: 332.828°
升交点赤经: 26.127°
平近点角: 23.944°
近地点: 758.451km
远地点: 1771.123km
周期: 110.828分钟
每日圈数: 12.993122
详细信息
发射场:
TTMTR
轨道高度:
LEO
数据来源:
AOE Integration Group
参考系:
TEME
时间系统:
UTC
历元类型:
SGP4
2D轨道图
3D轨道图
轨道高度分析图
轨道倾角分析图
轨道综合分析图
查看轨道综合分析图